Weather in Balkan

Turkey     38°55′46″N   39°39′13″E
temp.,
°C
wind,
m/s
gust,
m/s
humid.,
%
clouds,
%
prec.,
mm/h
press.,
hPa
HPBL,
m
20 april, tue
tue2000:00+16ene2261100 0.0 101516
03:00+15ne2263100 0.0 101417
06:00+15ne2266100 0.0 101425
09:00+18ne1153100 0.0 1013224
12:00+22s1340100 0.0 1013968
15:00+24s713351 0.0 10092041
18:00+21sse5104789 0.0 1010341
21:00+17se226058 0.0 101114
21 april, wed
wed2100:00+17ene2259100 0.0 101222
03:00+16ene2262100 0.0 101118
06:00+14ene2268100 0.0 101215
09:00+18sse3647100 0.0 1013766
12:00+23s7103053 0.0 10112215
15:00+24ssw913215 0.0 10103384
18:00+20s6112815 0.0 1011329
21:00+15ene114291 0.0 101311
22 april, thu
thu2200:00+13ne22450 0.0 101410
03:00+11ene22460 0.0 101510
06:00+10ne22520 0.0 101610
09:00+16ese12320 0.0 1016625
12:00+20ssw35212 0.0 10141544
15:00+21s89200 0.0 10112865
18:00+18ssw58300 0.0 1011366
21:00+14sse22415 0.0 101518
23 april, fri
fri2300:00+12sw11571 0.0 101711
03:00+10nnw11651 0.0 101810
06:00+9n11700 0.0 101911
09:00+14n12475 0.0 1019884
12:00+17wsw11320 0.0 10171577
15:00+20sw232483 0.0 10151847
18:00+18sw352720 0.0 1015216
21:00+14ssw1128100 0.0 101611
24 april, sat
sat2400:00+12n11315 0.0 101710
03:00+11nne11366 0.0 101710
06:00+11nne114046 0.0 101710
09:00+16s00275 0.0 1016487
12:00+20sw232262 0.0 10151540
15:00+22wsw45235 0.0 10131957
18:00+21wsw343288 0.0 1013144
21:00+16e1137100 0.0 101511